Погода в Федорково

Россия / Ярославская область     58°22′14″N   39°19′39″E
темп.,
°C
ветер,
м/с
пор.,
м/с
влажн.,
%
обл.,
%
осадки,
мм/ч
давл.,
гПа
погр.,
м
16 мая, вс
вс1600:00+12ю3109596 0.7 1008229
03:00+11ю39976 0.7 1008213
06:00+12ю310955 0.0 1008394
09:00+16ююз597557 0.0 10091043
12:00+18юз586277 0.2 10101444
15:00+19юз586847 0.6 10101177
18:00+17юз4983100 3.1 1010493
21:00+13юз279628 5.0 1012169
17 мая, пн
пн1700:00+12юз26975 0.0 1013126
03:00+11юз22965 0.0 101533
06:00+13зюз129357 0.0 101686
09:00+17ю2276100 0.0 1017473
12:00+21ююв2255100 0.0 10161140
15:00+22юв335216 0.0 10161499
18:00+21юв366584 0.0 1015531
21:00+16в39895 0.0 1015180
18 мая, вт
вт1800:00+15вюв31291100 0.3 1014277
03:00+13вюв310965 0.8 1014213
06:00+15вюв3119385 0.0 1014273
09:00+21юв511690 0.0 1013462
12:00+26юв611455 0.0 10131251
15:00+26юв610495 0.0 10121669
18:00+24юв51156100 0.0 1011786
21:00+19юв4156925 0.0 1012462
19 мая, ср
ср1900:00+17юв414805 0.0 1011334
03:00+15юв312875 0.0 1011259
06:00+17юв415765 0.0 1011407
09:00+22юв512585 0.0 1010567
12:00+26ююв611465 0.0 10111092
15:00+27юв6144713 0.0 10102126
18:00+25юв6135045 0.0 10091120
21:00+21вюв515660 0.0 1008623
20 мая, чт
чт2000:00+17зюз2593100 1.1 1011193
03:00+15в2698100 1.3 1009150
06:00+16юв4139187 0.1 1008651
09:00+20юв597022 0.1 1007729
12:00+21ююв61171100 0.4 10071434
15:00+20ю6118530 3.2 10071324
18:00+18ю5108210 1.3 10071001
21:00+15ююв41188100 1.3 1008558